千帆星座-21 (QIANFAN-21)

导读

QIANFAN-21 是中国北斗卫星导航系统的重要组成部分,主要用于提供高精度定位、导航和授时服务。该卫星采用先进技术和稳定平台,具备更强的信号覆盖能力和抗干扰性能,提升了系统的整体可靠性与全球服务能力。QIANFAN-21 的成功发射进一步完善了北斗三号系统的星座布局,为交通运输、应急救援、农业、电力等领域提供更精准的时空信息服务,增强了中国在全球卫星导航领域的竞争力和自主保障能力。

Basic Information
目录编号:
61554
目录名称:
QIANFAN-21
国际标识:
2024-185C
轨道中心:
EARTH
卫星名称:
千帆星座-21
卫星全名:
千帆星座-21 (QIANFAN-21)
卫星状态:
在轨 (已飞行650 天)
发射日期:
2024-10-15 UTC
国别 :
中国 (CN)
星等 :
--
Orbit Information
数据来源 国际轨道数据 AOE轨道数据
星历时间 2026-07-27T21:35:51+0800
10小时前
查看轨道信息
2026-07-28T02:00:00+0800
5小时前
查看轨道信息
半长轴 7193.728km 7193.739km
偏心率 0.0010327 0.001027
轨道倾角 88.972° 88.973°
近地点辐角 357.650° 354.948°
升交点赤经 50.414° 50.393°
平近点角 2.464° 224.201°
近地点 808.162km 808.214km
远地点 823.02km 822.99km
周期 101.202分钟 101.203分钟
每日圈数 14.228916 14.228883
Detailed Information
卫星平台:
21
覆盖范围:
全球
运营商:
上海垣信卫星科技有限公司
运营商所在国:
中国
使用方式:
暂无
Satellite Introduction
千帆星座,也被称为“G60星链”计划,是中国版“星链”的重要组成部分,旨在打造一个由1.4万多颗低轨宽频多媒体卫星构成的庞大星座。千帆星座计划由上海垣信卫星科技有限公司负责实施,于2023年启动建设。该项目是我国第二个低轨卫星大星座,旨在通过构建庞大的卫星网络,为全球用户提供高质量的通信和宽带互联网服务。
2D Orbit Map
3D Orbit Map
Orbit Altitude Analysis Chart
Orbit Inclination Analysis Chart
Orbit Comprehensive Analysis Chart
View Comprehensive Chart